Content
SEND FEEDBACK

Daily
Averages
Monthly
Summary
United States of America

SANDUSKY, MICHIGAN


Home > North America > United States > Michigan
Elevation: 770 feet     Latitude: 43 25N     Longitude: 082 50W

WEATHER
 
SELECT A DAY
Number of Records: 441,788;   Date Range: 3/27/97 - 12/16/14
 
SHARE

PRINT THIS DATA

[ ← Previous Day ]
WEATHER ALMANAC - JANUARY 31, 2013
[ Next Day → ]
[ °C ]   °F
Weather ElementAverageHighLow
Temperature22.3 °F30.6 °F (12:34 am)17.1 °F (11:54 pm)
Dewpoint12.1 °F27 °F (12:34 am)5.2 °F (7:14 pm)
Humidity65.6 %86 % (12:34 am)53 % (7:14 pm)
Barometer29.52 in29.79 in (11:54 pm)29.13 in (12:34 am)
Wind Speed20.9 mph28.8 mph (2:13 am)
Wind Gust41.4 mph (12:54 am)
Weather ElementAverage
Visibility9.5 mi
Wind DirectionW (275.2 °)

Weather ElementTotal
Precipitation---
Heating Degree Days41.2 (Base 65)
Averaged from 69 records on January 31, 2013
WEATHER CONDITIONS BREAKOUT
WIND DIRECTION BREAKOUT
WEATHER BY HOUR - JANUARY 31, 2013
[ °C ]   °F
Local TimeTemperatureDewpointHumidityBarometerVisibilityWind DirectionWind SpeedGust SpeedPrecipitationEventsConditions
12:34 AM30.6 °F27.0 °F86 %29.13 in10.0 miWest (270°)19.6 mph33.4 mphScattered Clouds
12:54 AM30.2 °F25.5 °F83 %29.15 in10.0 miWest (270°)21.9 mph41.4 mphScattered Clouds
1:13 AM29.7 °F25.0 °F83 %29.16 in10.0 miWest (270°)17.3 mph33.4 mphMostly Cloudy
1:34 AM29.3 °F23.9 °F80 %29.17 in10.0 miWest (270°)24.2 mph35.7 mphOvercast
1:54 AM27.7 °F20.3 °F74 %29.19 in10.0 miWest (270°)23.0 mph40.3 mphMostly Cloudy
2:13 AM27.0 °F18.3 °F70 %29.20 in10.0 miWNW (290°)28.8 mph40.3 mphMostly Cloudy
2:34 AM27.0 °F18.1 °F69 %29.22 in10.0 miWest (280°)21.9 mph38.0 mphOvercast
2:54 AM26.6 °F18.3 °F71 %29.23 in10.0 miWest (280°)24.2 mph34.5 mphOvercast
3:14 AM26.6 °F19.0 °F73 %29.24 in10.0 miWest (280°)23.0 mph31.1 mphOvercast
3:34 AM26.2 °F18.3 °F72 %29.25 in10.0 miWest (280°)25.3 mph40.3 mphOvercast
3:54 AM25.9 °F19.2 °F76 %29.26 in10.0 miWest (270°)24.2 mph33.4 mphOvercast
4:14 AM25.2 °F18.1 °F75 %29.27 in10.0 miWest (270°)23.0 mph35.7 mphOvercast
4:34 AM24.4 °F17.2 °F74 %29.29 in10.0 miWest (270°)24.2 mph34.5 mphSnowLight Snow
4:53 AM24.3 °F17.1 °F74 %29.30 in10.0 miWest (270°)24.2 mph33.4 mphOvercast
5:14 AM23.9 °F16.3 °F73 %29.31 in10.0 miWest (270°)26.5 mph35.7 mphOvercast
5:34 AM23.7 °F15.8 °F72 %29.33 in5.0 miWest (270°)23.0 mph33.4 mphSnowLight Snow
5:53 AM23.5 °F16.0 °F73 %29.34 in10.0 miWest (270°)26.5 mph34.5 mphSnowLight Snow
6:14 AM23.0 °F15.3 °F72 %29.36 in10.0 miWest (270°)23.0 mph38.0 mphSnowLight Snow
6:34 AM23.0 °F15.4 °F73 %29.37 in10.0 miWest (280°)27.6 mph38.0 mphSnowLight Snow
6:54 AM22.3 °F14.0 °F71 %29.39 in10.0 miWest (280°)24.2 mph33.4 mphSnowLight Snow
7:14 AM22.1 °F13.1 °F68 %29.40 in10.0 miWest (270°)26.5 mph33.4 mphOvercast
7:34 AM21.9 °F13.1 °F69 %29.42 in10.0 miWest (270°)19.6 mph29.9 mphOvercast
7:54 AM21.4 °F11.8 °F67 %29.43 in10.0 miWest (270°)18.4 mph32.2 mphOvercast
8:14 AM21.6 °F12.2 °F67 %29.45 in10.0 miWest (270°)19.6 mph26.5 mphOvercast
8:34 AM21.6 °F10.4 °F62 %29.46 in10.0 miWest (280°)23.0 mph39.1 mphOvercast
8:54 AM21.7 °F9.3 °F59 %29.47 in10.0 miWNW (290°)24.2 mph34.5 mphOvercast
9:14 AM21.9 °F11.3 °F64 %29.48 in10.0 miWest (270°)24.2 mph31.1 mphOvercast
9:34 AM21.7 °F11.3 °F64 %29.49 in10.0 miWest (280°)24.2 mph32.2 mphOvercast
9:54 AM22.1 °F10.2 °F60 %29.50 in10.0 miWest (280°)18.4 mph34.5 mphOvercast
10:34 AM22.5 °F12.9 °F67 %29.52 in10.0 miWest (280°)25.3 mph34.5 mphOvercast
10:54 AM23.0 °F12.6 °F64 %29.53 in10.0 miWest (270°)24.2 mph34.5 mphOvercast
11:14 AM22.3 °F10.6 °F61 %29.54 in10.0 miWest (260°)24.2 mph34.5 mphMostly Cloudy
11:34 AM22.3 °F10.9 °F62 %29.55 in7.0 miWest (270°)23.0 mph33.4 mphOvercast
11:59 AM22.8 °F10.9 °F60 %29.55 in10.0 miWest (260°)24.2 mph31.1 mphOvercast
12:14 PM22.8 °F10.2 °F59 %29.55 in10.0 miWest (270°)25.3 mph32.2 mphOvercast
12:34 PM22.6 °F9.5 °F57 %29.56 in10.0 miWest (280°)24.2 mph31.1 mphOvercast
12:54 PM21.9 °F10.2 °F61 %29.57 in10.0 miWest (260°)25.3 mph32.2 mphOvercast
1:14 PM21.9 °F8.8 °F57 %29.57 in7.0 miWest (280°)24.2 mph34.5 mphOvercast
1:35 PM22.6 °F9.9 °F58 %29.57 in10.0 miWest (270°)25.3 mph31.1 mphOvercast
1:54 PM22.1 °F8.2 °F55 %29.58 in10.0 miWest (280°)21.9 mph31.1 mphOvercast
2:14 PM22.3 °F9.3 °F58 %29.59 in7.0 miWest (270°)24.2 mph35.7 mphOvercast
2:35 PM22.6 °F8.8 °F55 %29.59 in10.0 miWest (270°)20.7 mph31.1 mphOvercast
2:54 PM22.1 °F9.0 °F57 %29.60 in10.0 miWest (280°)18.4 mph29.9 mphOvercast
3:14 PM22.3 °F8.8 °F56 %29.62 in10.0 miWest (270°)20.7 mph31.1 mphOvercast
3:35 PM21.7 °F9.3 °F59 %29.63 in10.0 miWest (270°)16.1 mph28.8 mphOvercast
3:54 PM21.6 °F9.0 °F58 %29.63 in10.0 miWest (270°)17.3 mph28.8 mphOvercast
4:14 PM21.6 °F7.7 °F55 %29.64 in10.0 miWest (270°)24.2 mph33.4 mphOvercast
4:35 PM21.2 °F8.8 °F59 %29.65 in10.0 miWest (280°)18.4 mph28.8 mphOvercast
4:54 PM21.2 °F7.7 °F56 %29.66 in10.0 miWest (280°)21.9 mph32.2 mphOvercast
5:14 PM20.8 °F7.3 °F56 %29.66 in10.0 miWest (280°)18.4 mph26.5 mphOvercast
5:35 PM20.5 °F7.7 °F58 %29.67 in10.0 miWest (280°)15.0 mph31.1 mphOvercast
5:54 PM20.3 °F7.2 °F57 %29.68 in10.0 miWest (280°)16.1 mph26.5 mphOvercast
6:14 PM20.1 °F7.0 °F57 %29.69 in10.0 miWest (280°)19.6 mph28.8 mphOvercast
6:34 PM20.1 °F5.9 °F54 %29.70 in10.0 miWest (280°)16.1 mph24.2 mphOvercast
6:54 PM19.8 °F5.5 °F54 %29.70 in10.0 miWest (270°)16.1 mph20.7 mphOvercast
7:14 PM19.8 °F5.2 °F53 %29.71 in10.0 miWest (280°)20.7 mph25.3 mphOvercast
7:34 PM19.4 °F6.1 °F56 %29.72 in10.0 miWNW (290°)11.5 mph21.9 mphOvercast
7:54 PM19.4 °F6.8 °F58 %29.73 in10.0 miWest (280°)15.0 mph24.2 mphOvercast
8:15 PM19.0 °F7.7 °F61 %29.74 in10.0 miWest (280°)13.8 mph23.0 mphOvercast
8:34 PM18.5 °F7.7 °F63 %29.74 in10.0 miWest (280°)18.4 mph26.5 mphOvercast
8:55 PM18.1 °F8.4 °F66 %29.75 in10.0 miWest (280°)13.8 mph21.9 mphMostly Cloudy
9:14 PM18.1 °F8.8 °F67 %29.75 in10.0 miWNW (290°)15.0 mph21.9 mphMostly Cloudy
9:34 PM18.1 °F8.4 °F66 %29.76 in10.0 miWNW (290°)15.0 mphOvercast
10:14 PM17.8 °F8.2 °F66 %29.77 in10.0 miWest (280°)12.7 mph26.5 mphOvercast
10:34 PM17.6 °F9.3 °F70 %29.78 in10.0 miWest (270°)18.4 mph23.0 mphOvercast
10:54 PM17.6 °F10.4 °F73 %29.78 in10.0 miWest (270°)18.4 mph23.0 mphOvercast
11:13 PM17.2 °F11.3 °F78 %29.78 in7.0 miWest (280°)16.1 mph20.7 mphSnowLight Snow
11:34 PM17.2 °F12.2 °F81 %29.78 in3.0 miWest (270°)15.0 mph23.0 mphSnowLight Snow
11:54 PM17.1 °F12.2 °F81 %29.79 in2.5 miWest (280°)15.0 mph20.7 mphSnowLight Snow
Hourly data recorded from KBAX, located miles away from Sandusky, Michigan







STORIES FROM OUR PARTNERS